Riverside, CA

10:51 AM PST on February 13, 2016 (GMT -0800)
Riverside Municipal

Weather History for KRAL - July, 2012

Change the Weather History Date:

Saturday, July 14, 2012

  Actual Average Record
Temperature  
Mean Temperature 85 °F 78 °F  
Max Temperature 96 °F 93 °F 106 °F (1978)
Min Temperature 73 °F 64 °F 49 °F (1915)
Degree Days  
Heating Degree Days 0 0  
Month to date heating degree days 0 0  
Since 1 June heating degree days 0 2  
Since 1 July heating degree days 0 0  
Cooling Degree Days 20 13  
Month to date cooling degree days 171 171  
Year to date cooling degree days 679 568  
Since 1 June cooling degree days 408 391  
Growing Degree Days 31 (Base 50)    
Moisture  
Dew Point 60 °F    
Average Humidity 60    
Maximum Humidity 87    
Minimum Humidity 33    
Precipitation  
Precipitation T in 0.00 in 0.00 in (2016)
Month to date precipitation T 0.01  
Year to date precipitation 2.85 9.20  
Since 1 July precipitation T  
Snow  
Snow 0.00 in - - ()
Month to date snowfall 0.0  
Year to date snowfall 0.0  
Snow Depth 0.00 in    
Sea Level Pressure  
Sea Level Pressure 29.85 in    
Wind  
Wind Speed 4 mph (West)    
Max Wind Speed 13 mph    
Max Gust Speed 16 mph    
Visibility 10 miles    
Events      
T = Trace of Precipitation, MM = Missing Value Source: NWS Daily Summary

Daily Weather History Graph

Daily Weather History Graph

Search for Another Location

Airport or City:

Trip Planner

Search our weather history database for the weather conditions in past years. The results will help you decide how hot, cold, wet, or windy it might be!

Date:

Astronomy

Jul. 14, 2012 Rise Set
Actual Time 5:49 AM PDT 8:01 PM PDT
Civil Twilight 5:20 AM PDT 8:30 PM PDT
Nautical Twilight 4:46 AM PDT 9:04 PM PDT
Astronomical Twilight 4:08 AM PDT 9:42 PM PDT
Moon 2:05 AM PDT (7/14) 4:30 PM PDT (7/14)
Length of Visible Light 15h 09m
Length of Day
14h 12m
Waning Crescent, 18% of the Moon is Illuminated
Jul 14
Waning Crescent
Jul 18
New
Jul 26
First Quarter
Aug 1
Full
Aug 9
Last Quarter

Hourly Weather History & Observations

Time (PDT) Temp. Heat Index Dew Point Humidity Pressure Visibility Wind Dir Wind Speed Gust Speed Precip Events Conditions
12:53 AM 75.0 °F - 62.1 °F 64% 29.87 in 10.0 mi West 3.5 mph - N/A   Clear
1:53 AM 73.9 °F - 61.0 °F 64% 29.86 in 10.0 mi Calm Calm - N/A   Clear
2:53 AM 71.1 °F - 61.0 °F 70% 29.85 in 10.0 mi West 3.5 mph - N/A   Clear
3:53 AM 71.1 °F - 61.0 °F 70% 29.85 in 10.0 mi Calm Calm - N/A   Clear
4:53 AM 70.0 °F - 62.1 °F 76% 29.85 in 10.0 mi Calm Calm - N/A   Clear
5:53 AM 70.0 °F - 62.1 °F 76% 29.86 in 9.0 mi Calm Calm - N/A   Clear
6:53 AM 69.1 °F - 62.1 °F 78% 29.88 in 8.0 mi Calm Calm - N/A   Clear
7:53 AM 72.0 °F - 61.0 °F 68% 29.89 in 8.0 mi Calm Calm - N/A   Clear
8:53 AM 77.0 °F - 61.0 °F 58% 29.90 in 8.0 mi Calm Calm - N/A   Clear
9:53 AM 80.1 °F 81.1 °F 61.0 °F 52% 29.88 in 8.0 mi West 4.6 mph - N/A   Clear
10:53 AM 84.9 °F 84.8 °F 60.1 °F 43% 29.88 in 9.0 mi Variable 4.6 mph - N/A   Clear
11:53 AM 89.1 °F 88.2 °F 59.0 °F 36% 29.87 in 10.0 mi West 6.9 mph - N/A   Clear
12:53 PM 91.0 °F 91.5 °F 62.1 °F 38% 29.85 in 10.0 mi West 10.4 mph 17.3 mph N/A   Partly Cloudy
1:53 PM 91.9 °F 91.8 °F 61.0 °F 35% 29.83 in 10.0 mi West 11.5 mph 17.3 mph N/A   Clear
2:53 PM 93.0 °F 92.7 °F 60.1 °F 33% 29.81 in 10.0 mi West 10.4 mph 21.9 mph N/A   Clear
3:53 PM 91.9 °F 91.2 °F 59.0 °F 33% 29.81 in 10.0 mi WNW 11.5 mph - N/A   Clear
4:53 PM 91.0 °F 89.2 °F 55.9 °F 30% 29.79 in 10.0 mi WNW 12.7 mph 21.9 mph N/A   Clear
5:53 PM 90.0 °F 87.9 °F 55.0 °F 30% 29.78 in 10.0 mi WNW 9.2 mph 18.4 mph N/A   Clear
6:53 PM 86.0 °F 85.0 °F 57.9 °F 38% 29.80 in 10.0 mi West 10.4 mph 18.4 mph N/A   Clear
7:53 PM 77.0 °F - 60.1 °F 56% 29.83 in 10.0 mi West 8.1 mph - N/A   Clear
8:53 PM 72.0 °F - 60.1 °F 66% 29.87 in 10.0 mi West 3.5 mph - N/A   Clear
9:53 PM 71.1 °F - 60.1 °F 68% 29.89 in 10.0 mi WNW 3.5 mph - N/A   Clear
10:53 PM 69.1 °F - 60.1 °F 73% 29.89 in 10.0 mi Calm Calm - N/A   Clear
11:53 PM 64.9 °F - 60.1 °F 84% 29.91 in 9.0 mi West 4.6 mph - N/A   Clear